Location: Muenchen
(48.1800°N, 11.5800°E)
Time: 09:51:32
(UTC+02:00)

Tiros 1 - Pass Details

Date: 30 June 2018
Orbit: 631 x 664 km, 48.4° (Epoch: 22 July)

Event Time Altitude Azimuth Distance (km) Brightness Sun altitude
Rises 21:49:49 0° 285° (WNW) 2,935 11.8 -4.9°
Reaches altitude 10° 21:52:19 10° 275° (W) 2,028 10.6 -5.2°
Maximum altitude 21:56:26 31° 213° (SSW) 1,122 8.3 -5.7°
Drops below altitude 10° 22:00:34 10° 152° (SSE) 2,039 9.1 -6.2°
Enters shadow 22:01:15 - 148° (SSE) 2,280 9.3 -6.3°
